Location: Colonia Mina de C?rbuni
(46.1667°N, 22.7167°E)
Time: 06:03:13
(UTC+00:00)

Tiros 1 - Pass Details

Date: 30 April 2024
Orbit: 624 x 657 km, 48.4° (Epoch: 25 May)

Event Time Altitude Azimuth Distance (km) Brightness Sun altitude
Rises 21:45:58 0° 279° (W) 2,947 10.8 -28.0°
Reaches altitude 10° 21:48:20 10° 282° (WNW) 2,031 9.9 -28.1°
Enters shadow 21:51:09 35° 293° (WNW) 1,022 8.3 -28.2°
